Time,TemperatureF,DewpointF,PressureIn,WindDirection,WindDirectionDegrees,WindSpeedMPH,WindSpeedGustMPH,Humidity,HourlyPrecipIn,Conditions,Clouds,dailyrainin,SoftwareType,DateUTC
2013-05-07 00:01:00,52.0,42.6,29.83,ESE,112,0.0,0.0,70,0.00,,,0.00,WUHU21623XXSP,2013-05-07 04:01:00,
2013-05-07 00:06:00,51.8,42.4,29.83,ESE,112,0.0,0.0,70,0.00,,,0.00,WUHU21623XXSP,2013-05-07 04:06:00,
2013-05-07 00:11:00,51.6,41.8,29.83,East,90,0.0,0.0,69,0.00,,,0.00,WUHU21623XXSP,2013-05-07 04:11:00,
2013-05-07 00:16:00,51.4,42.1,29.83,SE,135,0.0,0.0,70,0.00,,,0.00,WUHU21623XXSP,2013-05-07 04:16:00,
2013-05-07 00:21:00,51.4,42.1,29.83,SE,135,0.0,0.0,70,0.00,,,0.00,WUHU21623XXSP,2013-05-07 04:21:00,
2013-05-07 00:26:00,51.3,42.2,29.83,SE,135,0.0,0.0,71,0.00,,,0.00,WUHU21623XXSP,2013-05-07 04:26:00,
2013-05-07 00:31:00,51.1,42.4,29.83,SE,135,0.0,0.0,72,0.00,,,0.00,WUHU21623XXSP,2013-05-07 04:31:00,
2013-05-07 00:36:00,50.9,42.2,29.84,SE,135,0.0,0.0,72,0.00,,,0.00,WUHU21623XXSP,2013-05-07 04:36:00,
2013-05-07 00:41:00,50.7,41.7,29.84,SE,135,0.0,0.0,71,0.00,,,0.00,WUHU21623XXSP,2013-05-07 04:41:00,
2013-05-07 00:46:00,50.7,42.0,29.84,SE,135,0.0,0.0,72,0.00,,,0.00,WUHU21623XXSP,2013-05-07 04:46:00,
2013-05-07 00:51:00,50.5,41.9,29.84,SE,135,0.0,0.0,72,0.00,,,0.00,WUHU21623XXSP,2013-05-07 04:51:00,
2013-05-07 00:56:00,50.5,42.2,29.84,SE,135,0.0,0.0,73,0.00,,,0.00,WUHU21623XXSP,2013-05-07 04:56:00,
2013-05-07 01:01:00,50.4,42.4,29.84,SE,135,0.0,0.0,74,0.00,,,0.00,WUHU21623XXSP,2013-05-07 05:01:00,
2013-05-07 01:06:00,50.2,42.2,29.84,SE,135,0.0,0.0,74,0.00,,,0.00,WUHU21623XXSP,2013-05-07 05:06:00,
2013-05-07 01:11:00,50.2,42.5,29.84,SE,135,0.0,0.0,75,0.00,,,0.00,WUHU21623XXSP,2013-05-07 05:11:00,
2013-05-07 01:16:00,49.8,42.2,29.84,SE,135,0.0,0.0,75,0.00,,,0.00,WUHU21623XXSP,2013-05-07 05:16:00,
2013-05-07 01:21:00,49.8,42.5,29.84,SE,135,0.0,0.0,76,0.00,,,0.00,WUHU21623XXSP,2013-05-07 05:21:00,
2013-05-07 01:26:00,49.6,42.0,29.83,SE,135,0.0,0.0,75,0.00,,,0.00,WUHU21623XXSP,2013-05-07 05:26:00,
2013-05-07 01:31:00,49.6,42.3,29.83,SE,135,0.0,0.0,76,0.00,,,0.00,WUHU21623XXSP,2013-05-07 05:31:00,
2013-05-07 01:36:00,49.3,42.0,29.83,SE,135,0.0,0.0,76,0.00,,,0.00,WUHU21623XXSP,2013-05-07 05:36:00,
2013-05-07 01:41:00,49.3,42.3,29.83,SE,135,0.0,0.0,77,0.00,,,0.00,WUHU21623XXSP,2013-05-07 05:41:00,
2013-05-07 01:46:00,49.3,42.0,29.84,SE,135,0.0,0.0,76,0.00,,,0.00,WUHU21623XXSP,2013-05-07 05:46:00,
2013-05-07 01:51:00,49.3,42.0,29.83,SE,135,0.0,0.0,76,0.00,,,0.00,WUHU21623XXSP,2013-05-07 05:51:00,
2013-05-07 01:56:00,49.3,42.0,29.83,SE,135,0.0,0.0,76,0.00,,,0.00,WUHU21623XXSP,2013-05-07 05:56:00,
2013-05-07 02:01:00,49.3,42.0,29.83,SE,135,0.0,0.0,76,0.00,,,0.00,WUHU21623XXSP,2013-05-07 06:01:00,
2013-05-07 02:06:00,49.1,41.8,29.83,SE,135,0.0,0.0,76,0.00,,,0.00,WUHU21623XXSP,2013-05-07 06:06:00,
2013-05-07 02:11:00,48.9,41.6,29.83,SE,135,0.0,0.0,76,0.00,,,0.00,WUHU21623XXSP,2013-05-07 06:11:00,
2013-05-07 02:16:00,48.9,41.6,29.83,SE,135,0.0,0.0,76,0.00,,,0.00,WUHU21623XXSP,2013-05-07 06:16:00,
2013-05-07 02:21:00,48.7,41.8,29.83,SE,135,0.0,0.0,77,0.00,,,0.00,WUHU21623XXSP,2013-05-07 06:21:00,
2013-05-07 02:26:00,48.7,42.1,29.83,SE,135,0.0,0.0,78,0.00,,,0.00,WUHU21623XXSP,2013-05-07 06:26:00,
2013-05-07 02:31:00,48.9,42.0,29.83,SE,135,0.0,0.0,77,0.00,,,0.00,WUHU21623XXSP,2013-05-07 06:31:00,
2013-05-07 02:36:00,48.7,41.8,29.83,SE,135,0.0,0.0,77,0.00,,,0.00,WUHU21623XXSP,2013-05-07 06:36:00,
2013-05-07 02:41:00,48.7,41.8,29.83,SE,135,0.0,0.0,77,0.00,,,0.00,WUHU21623XXSP,2013-05-07 06:41:00,
2013-05-07 02:46:00,48.6,41.6,29.83,SE,135,0.0,0.0,77,0.00,,,0.00,WUHU21623XXSP,2013-05-07 06:46:00,
2013-05-07 02:51:00,48.4,41.8,29.83,SE,135,0.0,0.0,78,0.00,,,0.00,WUHU21623XXSP,2013-05-07 06:51:00,
2013-05-07 02:56:00,48.0,41.8,29.83,SE,135,0.0,0.0,79,0.00,,,0.00,WUHU21623XXSP,2013-05-07 06:56:00,
2013-05-07 03:01:00,48.0,41.8,29.83,SE,135,0.0,0.0,79,0.00,,,0.00,WUHU21623XXSP,2013-05-07 07:01:00,
2013-05-07 03:06:00,47.8,41.6,29.83,SE,135,0.0,0.0,79,0.00,,,0.00,WUHU21623XXSP,2013-05-07 07:06:00,
2013-05-07 03:11:00,47.5,41.3,29.83,SE,135,0.0,0.0,79,0.00,,,0.00,WUHU21623XXSP,2013-05-07 07:11:00,
2013-05-07 03:16:00,47.3,41.1,29.83,SE,135,0.0,0.0,79,0.00,,,0.00,WUHU21623XXSP,2013-05-07 07:16:00,
2013-05-07 03:21:00,47.1,40.9,29.83,SE,135,0.0,0.0,79,0.00,,,0.00,WUHU21623XXSP,2013-05-07 07:21:00,
2013-05-07 03:26:00,47.1,41.3,29.83,SE,135,0.0,0.0,80,0.00,,,0.00,WUHU21623XXSP,2013-05-07 07:26:00,
2013-05-07 03:31:00,47.1,41.3,29.83,SE,135,0.0,0.0,80,0.00,,,0.00,WUHU21623XXSP,2013-05-07 07:31:00,
2013-05-07 03:36:00,46.9,41.1,29.83,SE,135,0.0,0.0,80,0.00,,,0.00,WUHU21623XXSP,2013-05-07 07:36:00,
2013-05-07 03:41:00,46.9,41.1,29.83,SE,135,0.0,0.0,80,0.00,,,0.00,WUHU21623XXSP,2013-05-07 07:41:00,
2013-05-07 03:46:00,46.9,41.1,29.83,SE,135,0.0,0.0,80,0.00,,,0.00,WUHU21623XXSP,2013-05-07 07:46:00,
2013-05-07 03:51:00,46.9,41.1,29.83,SE,135,0.0,0.0,80,0.00,,,0.00,WUHU21623XXSP,2013-05-07 07:51:00,
2013-05-07 03:56:00,46.8,41.3,29.83,SE,135,0.0,0.0,81,0.00,,,0.00,WUHU21623XXSP,2013-05-07 07:56:00,
2013-05-07 04:01:00,46.8,41.3,29.83,SE,135,0.0,0.0,81,0.00,,,0.00,WUHU21623XXSP,2013-05-07 08:01:00,
2013-05-07 04:06:00,46.6,41.1,29.83,SE,135,0.0,0.0,81,0.00,,,0.00,WUHU21623XXSP,2013-05-07 08:06:00,
2013-05-07 04:11:00,46.6,41.1,29.83,SE,135,0.0,0.0,81,0.00,,,0.00,WUHU21623XXSP,2013-05-07 08:11:00,
2013-05-07 04:16:00,46.4,40.9,29.83,SE,135,0.0,0.0,81,0.00,,,0.00,WUHU21623XXSP,2013-05-07 08:16:00,
2013-05-07 04:21:00,46.6,41.4,29.83,SE,135,0.0,0.0,82,0.00,,,0.00,WUHU21623XXSP,2013-05-07 08:21:00,
2013-05-07 04:26:00,46.6,41.1,29.83,SE,135,0.0,0.0,81,0.00,,,0.00,WUHU21623XXSP,2013-05-07 08:26:00,
2013-05-07 04:31:00,46.6,41.1,29.83,SE,135,0.0,0.0,81,0.00,,,0.00,WUHU21623XXSP,2013-05-07 08:31:00,
2013-05-07 04:36:00,46.4,40.9,29.83,SE,135,0.0,0.0,81,0.00,,,0.00,WUHU21623XXSP,2013-05-07 08:36:00,
2013-05-07 04:41:00,46.2,40.8,29.83,SE,135,0.0,0.0,81,0.00,,,0.00,WUHU21623XXSP,2013-05-07 08:41:00,
2013-05-07 04:46:00,46.2,40.8,29.83,SE,135,0.0,0.0,81,0.00,,,0.00,WUHU21623XXSP,2013-05-07 08:46:00,
2013-05-07 04:51:00,46.2,40.8,29.83,SE,135,0.0,0.0,81,0.00,,,0.00,WUHU21623XXSP,2013-05-07 08:51:00,
2013-05-07 04:56:00,46.2,40.8,29.83,SE,135,0.0,0.0,81,0.00,,,0.00,WUHU21623XXSP,2013-05-07 08:56:00,
2013-05-07 05:01:00,46.2,41.1,29.83,SE,135,0.0,0.0,82,0.00,,,0.00,WUHU21623XXSP,2013-05-07 09:01:00,
2013-05-07 05:06:00,46.0,40.9,29.83,SE,135,0.0,0.0,82,0.00,,,0.00,WUHU21623XXSP,2013-05-07 09:06:00,
2013-05-07 05:11:00,46.0,40.9,29.83,SE,135,0.0,0.0,82,0.00,,,0.00,WUHU21623XXSP,2013-05-07 09:11:00,
2013-05-07 05:16:00,45.7,40.5,29.83,SE,135,0.0,0.0,82,0.00,,,0.00,WUHU21623XXSP,2013-05-07 09:16:00,
2013-05-07 05:21:00,45.7,40.8,29.83,SE,135,0.0,0.0,83,0.00,,,0.00,WUHU21623XXSP,2013-05-07 09:21:00,
2013-05-07 05:26:00,45.7,40.8,29.83,SE,135,0.0,0.0,83,0.00,,,0.00,WUHU21623XXSP,2013-05-07 09:26:00,
2013-05-07 05:31:00,45.7,40.8,29.83,SE,135,0.0,0.0,83,0.00,,,0.00,WUHU21623XXSP,2013-05-07 09:31:00,
2013-05-07 05:36:00,45.5,40.7,29.83,SE,135,0.0,0.0,83,0.00,,,0.00,WUHU21623XXSP,2013-05-07 09:36:00,
2013-05-07 05:41:00,45.5,40.7,29.83,SE,135,0.0,0.0,83,0.00,,,0.00,WUHU21623XXSP,2013-05-07 09:41:00,
2013-05-07 05:46:00,45.5,40.7,29.83,SE,135,0.0,0.0,83,0.00,,,0.00,WUHU21623XXSP,2013-05-07 09:46:00,
2013-05-07 05:51:00,45.3,40.5,29.84,SE,135,0.0,0.0,83,0.00,,,0.00,WUHU21623XXSP,2013-05-07 09:51:00,
2013-05-07 05:56:00,45.3,40.5,29.84,SE,135,0.0,0.0,83,0.00,,,0.00,WUHU21623XXSP,2013-05-07 09:56:00,
2013-05-07 06:01:00,45.3,40.8,29.84,SE,135,0.0,0.0,84,0.00,,,0.00,WUHU21623XXSP,2013-05-07 10:01:00,
2013-05-07 06:06:00,45.3,40.8,29.84,SE,135,0.0,0.0,84,0.00,,,0.00,WUHU21623XXSP,2013-05-07 10:06:00,
2013-05-07 06:11:00,45.3,40.8,29.84,SE,135,0.0,0.0,84,0.00,,,0.00,WUHU21623XXSP,2013-05-07 10:11:00,
2013-05-07 06:16:00,45.3,40.8,29.84,SE,135,0.0,0.0,84,0.00,,,0.00,WUHU21623XXSP,2013-05-07 10:16:00,
2013-05-07 06:21:00,45.3,40.8,29.84,SE,135,0.0,0.0,84,0.00,,,0.00,WUHU21623XXSP,2013-05-07 10:21:00,
2013-05-07 06:26:00,45.3,40.8,29.84,SE,135,0.0,0.0,84,0.00,,,0.00,WUHU21623XXSP,2013-05-07 10:26:00,
2013-05-07 06:31:00,45.5,41.3,29.84,SE,135,0.0,0.0,85,0.00,,,0.00,WUHU21623XXSP,2013-05-07 10:31:00,
2013-05-07 06:36:00,45.7,41.5,29.85,South,180,0.0,0.0,85,0.00,,,0.00,WUHU21623XXSP,2013-05-07 10:36:00,
2013-05-07 06:41:00,45.7,41.8,29.85,South,180,0.0,0.0,86,0.00,,,0.00,WUHU21623XXSP,2013-05-07 10:41:00,
2013-05-07 06:46:00,45.9,41.9,29.85,South,180,0.0,0.0,86,0.00,,,0.00,WUHU21623XXSP,2013-05-07 10:46:00,
2013-05-07 06:51:00,46.0,41.8,29.85,South,180,0.0,0.0,85,0.00,,,0.00,WUHU21623XXSP,2013-05-07 10:51:00,
2013-05-07 06:56:00,46.0,41.8,29.85,South,180,0.0,0.0,85,0.00,,,0.00,WUHU21623XXSP,2013-05-07 10:56:00,
2013-05-07 07:01:00,46.0,41.8,29.85,South,180,0.0,0.0,85,0.00,,,0.00,WUHU21623XXSP,2013-05-07 11:01:00,
2013-05-07 07:06:00,46.2,41.7,29.85,South,180,0.0,0.0,84,0.00,,,0.00,WUHU21623XXSP,2013-05-07 11:06:00,
2013-05-07 07:11:00,46.2,41.7,29.85,South,180,0.0,0.0,84,0.00,,,0.00,WUHU21623XXSP,2013-05-07 11:11:00,
2013-05-07 07:16:00,46.2,42.0,29.86,South,180,0.0,0.0,85,0.00,,,0.00,WUHU21623XXSP,2013-05-07 11:16:00,
2013-05-07 07:21:00,46.6,42.3,29.86,South,180,0.0,0.0,85,0.00,,,0.00,WUHU21623XXSP,2013-05-07 11:21:00,
2013-05-07 07:26:00,46.8,42.5,29.86,South,180,0.0,0.0,85,0.00,,,0.00,WUHU21623XXSP,2013-05-07 11:26:00,
2013-05-07 07:31:00,47.1,42.9,29.86,South,180,0.0,0.0,85,0.00,,,0.00,WUHU21623XXSP,2013-05-07 11:31:00,
2013-05-07 07:36:00,47.5,43.5,29.86,South,180,0.0,0.0,86,0.00,,,0.00,WUHU21623XXSP,2013-05-07 11:36:00,
2013-05-07 07:41:00,48.0,44.0,29.86,South,180,0.0,0.0,86,0.00,,,0.00,WUHU21623XXSP,2013-05-07 11:41:00,
2013-05-07 07:46:00,48.6,44.5,29.87,South,180,0.0,0.0,86,0.00,,,0.00,WUHU21623XXSP,2013-05-07 11:46:00,
2013-05-07 07:51:00,48.9,44.9,29.86,South,180,0.0,0.0,86,0.00,,,0.00,WUHU21623XXSP,2013-05-07 11:51:00,
2013-05-07 07:56:00,49.6,45.2,29.87,South,180,0.0,0.0,85,0.00,,,0.00,WUHU21623XXSP,2013-05-07 11:56:00,
2013-05-07 08:01:00,49.8,45.4,29.87,South,180,0.0,0.0,85,0.00,,,0.00,WUHU21623XXSP,2013-05-07 12:01:00,
2013-05-07 08:06:00,50.4,46.0,29.87,South,180,0.0,0.0,85,0.00,,,0.00,WUHU21623XXSP,2013-05-07 12:06:00,
2013-05-07 08:11:00,51.1,46.7,29.87,South,180,0.0,0.0,85,0.00,,,0.00,WUHU21623XXSP,2013-05-07 12:11:00,
2013-05-07 08:16:00,51.6,47.2,29.87,South,180,0.0,0.0,85,0.00,,,0.00,WUHU21623XXSP,2013-05-07 12:16:00,
2013-05-07 08:21:00,52.2,47.4,29.87,SSW,202,0.0,0.0,84,0.00,,,0.00,WUHU21623XXSP,2013-05-07 12:21:00,
2013-05-07 08:26:00,52.9,48.2,29.87,SSW,202,0.0,0.0,84,0.00,,,0.00,WUHU21623XXSP,2013-05-07 12:26:00,
2013-05-07 08:31:00,53.6,48.6,29.87,SSW,202,0.0,0.0,83,0.00,,,0.00,WUHU21623XXSP,2013-05-07 12:31:00,
2013-05-07 08:36:00,54.3,48.9,29.87,SSE,157,0.0,0.0,82,0.00,,,0.00,WUHU21623XXSP,2013-05-07 12:36:00,
2013-05-07 08:41:00,55.0,49.3,29.87,NNW,337,0.0,0.0,81,0.00,,,0.00,WUHU21623XXSP,2013-05-07 12:41:00,
2013-05-07 08:46:00,55.6,49.5,29.87,NNW,337,0.0,0.0,80,0.00,,,0.00,WUHU21623XXSP,2013-05-07 12:46:00,
2013-05-07 08:51:00,56.1,49.6,29.87,NNW,337,0.0,0.0,79,0.00,,,0.00,WUHU21623XXSP,2013-05-07 12:51:00,
2013-05-07 08:56:00,56.8,49.6,29.87,North,0,0.0,0.0,77,0.00,,,0.00,WUHU21623XXSP,2013-05-07 12:56:00,
2013-05-07 09:01:00,57.6,50.0,29.87,North,0,0.0,0.0,76,0.00,,,0.00,WUHU21623XXSP,2013-05-07 13:01:00,
2013-05-07 09:06:00,58.3,50.0,29.87,North,0,0.0,0.0,74,0.00,,,0.00,WUHU21623XXSP,2013-05-07 13:06:00,
2013-05-07 09:11:00,58.8,49.8,29.87,NNE,22,0.0,0.0,72,0.00,,,0.00,WUHU21623XXSP,2013-05-07 13:11:00,
2013-05-07 09:16:00,59.5,49.4,29.87,NE,45,0.0,0.0,69,0.00,,,0.00,WUHU21623XXSP,2013-05-07 13:16:00,
2013-05-07 09:21:00,60.1,49.5,29.87,ENE,67,0.0,0.0,68,0.00,,,0.00,WUHU21623XXSP,2013-05-07 13:21:00,
2013-05-07 09:26:00,61.0,50.0,29.87,ENE,67,0.0,0.0,67,0.00,,,0.00,WUHU21623XXSP,2013-05-07 13:26:00,
2013-05-07 09:31:00,61.5,50.5,29.88,SE,135,0.0,0.0,67,0.00,,,0.00,WUHU21623XXSP,2013-05-07 13:31:00,
2013-05-07 09:36:00,62.1,50.6,29.88,SSW,202,0.0,0.0,66,0.00,,,0.00,WUHU21623XXSP,2013-05-07 13:36:00,
2013-05-07 09:41:00,62.6,50.6,29.88,East,90,0.0,0.0,65,0.00,,,0.00,WUHU21623XXSP,2013-05-07 13:41:00,
2013-05-07 09:46:00,63.1,50.3,29.88,NE,45,0.0,0.0,63,0.00,,,0.00,WUHU21623XXSP,2013-05-07 13:46:00,
2013-05-07 09:51:00,63.7,50.8,29.88,ENE,67,0.0,0.0,63,0.00,,,0.00,WUHU21623XXSP,2013-05-07 13:51:00,
2013-05-07 09:56:00,64.2,50.9,29.88,NE,45,0.0,0.0,62,0.00,,,0.00,WUHU21623XXSP,2013-05-07 13:56:00,
2013-05-07 10:01:00,64.8,51.4,29.87,NE,45,0.0,0.0,62,0.00,,,0.00,WUHU21623XXSP,2013-05-07 14:01:00,
2013-05-07 10:06:00,65.3,51.5,29.88,ESE,112,0.0,0.0,61,0.00,,,0.00,WUHU21623XXSP,2013-05-07 14:06:00,
2013-05-07 10:11:00,65.8,51.6,29.88,SE,126,1.3,2.0,60,0.00,,,0.00,WUHU21623XXSP,2013-05-07 14:11:00,
2013-05-07 10:16:00,66.4,52.1,29.88,NNE,22,0.0,2.0,60,0.00,,,0.00,WUHU21623XXSP,2013-05-07 14:16:00,
2013-05-07 10:21:00,66.7,52.0,29.88,NNE,22,1.1,1.3,59,0.00,,,0.00,WUHU21623XXSP,2013-05-07 14:21:00,
2013-05-07 10:26:00,67.3,51.5,29.87,SSE,157,0.0,1.1,57,0.00,,,0.00,WUHU21623XXSP,2013-05-07 14:26:00,
2013-05-07 10:31:00,67.6,51.8,29.87,ENE,67,1.3,2.0,57,0.00,,,0.00,WUHU21623XXSP,2013-05-07 14:31:00,
2013-05-07 10:36:00,67.8,52.0,29.87,ENE,67,0.0,2.0,57,0.00,,,0.00,WUHU21623XXSP,2013-05-07 14:36:00,
2013-05-07 10:41:00,68.5,52.2,29.87,SSW,202,2.0,2.0,56,0.00,,,0.00,WUHU21623XXSP,2013-05-07 14:41:00,
2013-05-07 10:46:00,68.9,52.5,29.87,NNE,22,0.0,2.0,56,0.00,,,0.00,WUHU21623XXSP,2013-05-07 14:46:00,
2013-05-07 10:51:00,69.4,52.5,29.87,NNE,24,1.1,1.6,55,0.00,,,0.00,WUHU21623XXSP,2013-05-07 14:51:00,
2013-05-07 10:56:00,69.8,52.9,29.87,NE,45,0.9,3.1,55,0.00,,,0.00,WUHU21623XXSP,2013-05-07 14:56:00,
2013-05-07 11:01:00,70.3,52.9,29.87,ESE,112,0.0,3.1,54,0.00,,,0.00,WUHU21623XXSP,2013-05-07 15:01:00,
2013-05-07 11:06:00,70.7,52.7,29.87,ENE,67,0.0,2.9,53,0.00,,,0.00,WUHU21623XXSP,2013-05-07 15:06:00,
2013-05-07 11:11:00,70.9,52.3,29.87,NNE,30,3.0,4.7,52,0.00,,,0.00,WUHU21623XXSP,2013-05-07 15:11:00,
2013-05-07 11:16:00,71.2,52.7,29.87,North,9,1.6,4.7,52,0.00,,,0.00,WUHU21623XXSP,2013-05-07 15:16:00,
2013-05-07 11:21:00,71.4,52.3,29.87,NNE,24,2.1,3.4,51,0.00,,,0.00,WUHU21623XXSP,2013-05-07 15:21:00,
2013-05-07 11:26:00,72.0,52.3,29.87,NNE,22,6.3,6.3,50,0.00,,,0.00,WUHU21623XXSP,2013-05-07 15:26:00,
2013-05-07 11:31:00,72.1,52.5,29.87,ENE,57,1.6,7.2,50,0.00,,,0.00,WUHU21623XXSP,2013-05-07 15:31:00,
2013-05-07 11:36:00,72.7,52.4,29.87,NNE,26,1.5,7.2,49,0.00,,,0.00,WUHU21623XXSP,2013-05-07 15:36:00,
2013-05-07 11:41:00,73.2,52.8,29.87,NNE,15,1.7,6.9,49,0.00,,,0.00,WUHU21623XXSP,2013-05-07 15:41:00,
2013-05-07 11:46:00,73.6,52.0,29.86,NNE,17,2.2,6.9,47,0.00,,,0.00,WUHU21623XXSP,2013-05-07 15:46:00,
2013-05-07 11:51:00,73.9,52.3,29.87,ENE,67,2.5,5.6,47,0.00,,,0.00,WUHU21623XXSP,2013-05-07 15:51:00,
2013-05-07 11:56:00,74.3,52.1,29.87,NE,40,1.0,5.6,46,0.00,,,0.00,WUHU21623XXSP,2013-05-07 15:56:00,
2013-05-07 12:01:00,74.8,52.0,29.87,NE,36,1.0,2.0,45,0.00,,,0.00,WUHU21623XXSP,2013-05-07 16:01:00,
2013-05-07 12:06:00,75.4,51.9,29.86,NNE,32,2.0,4.3,44,0.00,,,0.00,WUHU21623XXSP,2013-05-07 16:06:00,
2013-05-07 12:11:00,75.9,51.8,29.87,North,0,1.8,4.3,43,0.00,,,0.00,WUHU21623XXSP,2013-05-07 16:11:00,
2013-05-07 12:16:00,76.3,51.5,29.86,NNE,31,3.1,6.3,42,0.00,,,0.00,WUHU21623XXSP,2013-05-07 16:16:00,
2013-05-07 12:21:00,76.6,51.2,29.86,NNE,28,3.5,8.3,41,0.00,,,0.00,WUHU21623XXSP,2013-05-07 16:21:00,
2013-05-07 12:26:00,76.5,51.0,29.86,North,0,3.4,8.3,41,0.00,,,0.00,WUHU21623XXSP,2013-05-07 16:26:00,
2013-05-07 12:31:00,76.6,51.2,29.86,NNE,25,2.4,5.6,41,0.00,,,0.00,WUHU21623XXSP,2013-05-07 16:31:00,
2013-05-07 12:36:00,76.8,50.7,29.86,North,0,1.6,5.6,40,0.00,,,0.00,WUHU21623XXSP,2013-05-07 16:36:00,
2013-05-07 12:41:00,77.0,51.5,29.86,ESE,112,2.5,7.4,41,0.00,,,0.00,WUHU21623XXSP,2013-05-07 16:41:00,
2013-05-07 12:46:00,77.2,51.1,29.86,NE,45,4.9,7.4,40,0.00,,,0.00,WUHU21623XXSP,2013-05-07 16:46:00,
2013-05-07 12:51:00,77.2,51.1,29.85,NNE,22,3.8,5.6,40,0.00,,,0.00,WUHU21623XXSP,2013-05-07 16:51:00,
2013-05-07 12:56:00,77.5,51.4,29.85,NNE,22,3.4,5.6,40,0.00,,,0.00,WUHU21623XXSP,2013-05-07 16:56:00,
2013-05-07 13:01:00,77.7,51.5,29.86,NE,35,3.0,5.4,40,0.00,,,0.00,WUHU21623XXSP,2013-05-07 17:01:00,
2013-05-07 13:06:00,77.9,52.3,29.85,NE,45,1.6,5.4,41,0.00,,,0.00,WUHU21623XXSP,2013-05-07 17:06:00,
2013-05-07 13:11:00,78.4,52.8,29.85,West,278,1.0,3.4,41,0.00,,,0.00,WUHU21623XXSP,2013-05-07 17:11:00,
2013-05-07 13:16:00,78.6,53.0,29.85,NNW,337,2.7,2.7,41,0.00,,,0.00,WUHU21623XXSP,2013-05-07 17:16:00,
2013-05-07 13:21:00,78.6,53.0,29.85,NNW,348,2.2,3.8,41,0.00,,,0.00,WUHU21623XXSP,2013-05-07 17:21:00,
2013-05-07 13:26:00,78.1,52.5,29.85,NW,318,1.1,4.0,41,0.00,,,0.00,WUHU21623XXSP,2013-05-07 17:26:00,
2013-05-07 13:31:00,76.6,51.8,29.85,NNW,331,1.8,4.0,42,0.00,,,0.00,WUHU21623XXSP,2013-05-07 17:31:00,
2013-05-07 13:36:00,75.0,50.9,29.85,West,280,2.4,5.8,43,0.00,,,0.00,WUHU21623XXSP,2013-05-07 17:36:00,
2013-05-07 13:41:00,73.9,50.5,29.85,NW,315,0.0,5.8,44,0.00,,,0.00,WUHU21623XXSP,2013-05-07 17:41:00,
2013-05-07 13:46:00,73.2,50.5,29.85,West,270,4.3,4.3,45,0.00,,,0.00,WUHU21623XXSP,2013-05-07 17:46:00,
2013-05-07 13:51:00,72.7,50.6,29.85,WNW,303,1.3,4.3,46,0.00,,,0.00,WUHU21623XXSP,2013-05-07 17:51:00,
2013-05-07 13:56:00,72.3,50.3,29.85,North,6,0.9,4.0,46,0.00,,,0.00,WUHU21623XXSP,2013-05-07 17:56:00,
2013-05-07 14:01:00,71.8,49.8,29.85,NW,326,1.0,4.0,46,0.00,,,0.00,WUHU21623XXSP,2013-05-07 18:01:00,
2013-05-07 14:06:00,71.8,50.4,29.85,WNW,292,1.8,4.0,47,0.00,,,0.00,WUHU21623XXSP,2013-05-07 18:06:00,
2013-05-07 14:11:00,72.3,51.4,29.85,North,7,1.5,2.5,48,0.00,,,0.00,WUHU21623XXSP,2013-05-07 18:11:00,
2013-05-07 14:16:00,73.2,51.1,29.85,WNW,291,1.7,4.9,46,0.00,,,0.00,WUHU21623XXSP,2013-05-07 18:16:00,
2013-05-07 14:21:00,73.2,50.5,29.85,NNW,337,3.4,4.9,45,0.00,,,0.00,WUHU21623XXSP,2013-05-07 18:21:00,
2013-05-07 14:26:00,73.2,49.9,29.84,NW,313,2.5,3.8,44,0.00,,,0.00,WUHU21623XXSP,2013-05-07 18:26:00,
2013-05-07 14:31:00,73.6,51.4,29.84,NW,312,1.0,3.8,46,0.00,,,0.00,WUHU21623XXSP,2013-05-07 18:31:00,
2013-05-07 14:36:00,74.3,50.9,29.84,NNE,22,1.1,3.4,44,0.00,,,0.00,WUHU21623XXSP,2013-05-07 18:36:00,
2013-05-07 14:41:00,74.5,49.8,29.84,NNW,341,2.2,3.8,42,0.00,,,0.00,WUHU21623XXSP,2013-05-07 18:41:00,
2013-05-07 14:46:00,74.8,50.2,29.84,NNW,334,1.6,3.8,42,0.00,,,0.00,WUHU21623XXSP,2013-05-07 18:46:00,
2013-05-07 14:51:00,74.5,49.8,29.84,NW,307,2.1,3.8,42,0.00,,,0.00,WUHU21623XXSP,2013-05-07 18:51:00,
2013-05-07 14:56:00,74.1,48.9,29.84,NNE,26,2.6,4.0,41,0.00,,,0.00,WUHU21623XXSP,2013-05-07 18:56:00,
2013-05-07 15:01:00,73.6,49.0,29.84,NW,315,2.9,4.0,42,0.00,,,0.00,WUHU21623XXSP,2013-05-07 19:01:00,
2013-05-07 15:06:00,73.2,48.7,29.84,North,0,3.6,5.8,42,0.00,,,0.00,WUHU21623XXSP,2013-05-07 19:06:00,
2013-05-07 15:11:00,73.0,48.5,29.84,NNE,22,4.5,5.8,42,0.00,,,0.00,WUHU21623XXSP,2013-05-07 19:11:00,
2013-05-07 15:16:00,72.7,48.2,29.84,North,5,2.2,4.7,42,0.00,,,0.00,WUHU21623XXSP,2013-05-07 19:16:00,
2013-05-07 15:21:00,72.5,48.0,29.84,NNW,337,1.7,4.7,42,0.00,,,0.00,WUHU21623XXSP,2013-05-07 19:21:00,
2013-05-07 15:26:00,72.7,48.8,29.84,NNW,339,1.3,3.4,43,0.00,,,0.00,WUHU21623XXSP,2013-05-07 19:26:00,
2013-05-07 15:31:00,73.0,49.1,29.84,NNE,22,3.6,3.8,43,0.00,,,0.00,WUHU21623XXSP,2013-05-07 19:31:00,
2013-05-07 15:36:00,73.2,48.7,29.84,WNW,285,1.0,3.8,42,0.00,,,0.00,WUHU21623XXSP,2013-05-07 19:36:00,
2013-05-07 15:41:00,73.2,48.7,29.84,NNW,337,1.7,3.6,42,0.00,,,0.00,WUHU21623XXSP,2013-05-07 19:41:00,
2013-05-07 15:46:00,73.0,48.5,29.84,NW,319,1.5,2.9,42,0.00,,,0.00,WUHU21623XXSP,2013-05-07 19:46:00,
2013-05-07 15:51:00,72.5,48.2,29.84,NNW,344,2.2,4.0,42,0.00,,,0.00,WUHU21623XXSP,2013-05-07 19:51:00,
2013-05-07 15:56:00,72.1,47.7,29.84,NNE,22,2.7,5.1,42,0.00,,,0.00,WUHU21623XXSP,2013-05-07 19:56:00,
2013-05-07 16:01:00,71.6,47.2,29.84,North,0,2.9,5.1,42,0.00,,,0.00,WUHU21623XXSP,2013-05-07 20:01:00,
2013-05-07 16:06:00,71.4,47.7,29.84,North,0,2.2,4.7,43,0.00,,,0.00,WUHU21623XXSP,2013-05-07 20:06:00,
2013-05-07 16:11:00,71.4,47.7,29.84,NW,314,1.2,3.1,43,0.00,,,0.00,WUHU21623XXSP,2013-05-07 20:11:00,
2013-05-07 16:16:00,71.2,47.5,29.84,NNW,337,1.6,2.7,43,0.00,,,0.00,WUHU21623XXSP,2013-05-07 20:16:00,
2013-05-07 16:21:00,71.1,47.3,29.84,North,0,1.8,2.9,43,0.00,,,0.00,WUHU21623XXSP,2013-05-07 20:21:00,
2013-05-07 16:26:00,70.7,47.6,29.84,North,0,2.2,2.9,44,0.00,,,0.00,WUHU21623XXSP,2013-05-07 20:26:00,
2013-05-07 16:31:00,70.3,47.3,29.84,North,0,1.6,2.7,44,0.00,,,0.00,WUHU21623XXSP,2013-05-07 20:31:00,
2013-05-07 16:36:00,70.2,47.1,29.83,North,7,1.8,2.7,44,0.00,,,0.00,WUHU21623XXSP,2013-05-07 20:36:00,
2013-05-07 16:41:00,70.2,47.1,29.83,North,0,0.0,2.2,44,0.00,,,0.00,WUHU21623XXSP,2013-05-07 20:41:00,
2013-05-07 16:46:00,70.0,47.0,29.83,NNW,339,1.3,2.2,44,0.00,,,0.00,WUHU21623XXSP,2013-05-07 20:46:00,
2013-05-07 16:51:00,69.8,46.8,29.83,North,10,1.0,2.2,44,0.00,,,0.00,WUHU21623XXSP,2013-05-07 20:51:00,
2013-05-07 16:56:00,70.0,47.6,29.83,North,0,1.1,2.0,45,0.00,,,0.00,WUHU21623XXSP,2013-05-07 20:56:00,
2013-05-07 17:01:00,70.2,47.7,29.83,North,0,0.0,1.3,45,0.00,,,0.00,WUHU21623XXSP,2013-05-07 21:01:00,
2013-05-07 17:06:00,70.3,47.9,29.83,NNE,22,0.9,1.3,45,0.00,,,0.00,WUHU21623XXSP,2013-05-07 21:06:00,
2013-05-07 17:11:00,70.5,48.0,29.83,NW,315,0.9,1.3,45,0.00,,,0.00,WUHU21623XXSP,2013-05-07 21:11:00,
2013-05-07 17:16:00,70.9,47.8,29.82,NNE,22,1.2,1.8,44,0.00,,,0.00,WUHU21623XXSP,2013-05-07 21:16:00,
2013-05-07 17:21:00,71.2,48.1,29.82,North,0,1.1,1.8,44,0.00,,,0.00,WUHU21623XXSP,2013-05-07 21:21:00,
2013-05-07 17:26:00,71.6,48.4,29.82,NNW,337,0.9,1.6,44,0.00,,,0.00,WUHU21623XXSP,2013-05-07 21:26:00,
2013-05-07 17:31:00,72.1,48.9,29.83,North,0,2.0,2.0,44,0.00,,,0.00,WUHU21623XXSP,2013-05-07 21:31:00,
2013-05-07 17:36:00,72.3,48.5,29.83,North,0,1.2,2.2,43,0.00,,,0.00,WUHU21623XXSP,2013-05-07 21:36:00,
2013-05-07 17:41:00,72.9,48.4,29.83,NNE,20,1.2,2.2,42,0.00,,,0.00,WUHU21623XXSP,2013-05-07 21:41:00,
2013-05-07 17:46:00,73.2,48.7,29.82,North,5,1.2,1.6,42,0.00,,,0.00,WUHU21623XXSP,2013-05-07 21:46:00,
2013-05-07 17:51:00,73.2,48.7,29.82,North,6,1.5,3.4,42,0.00,,,0.00,WUHU21623XXSP,2013-05-07 21:51:00,
2013-05-07 17:56:00,73.0,48.5,29.83,NNE,14,1.5,3.4,42,0.00,,,0.00,WUHU21623XXSP,2013-05-07 21:56:00,
2013-05-07 18:01:00,72.7,47.6,29.82,NNE,22,2.9,4.5,41,0.00,,,0.00,WUHU21623XXSP,2013-05-07 22:01:00,
2013-05-07 18:06:00,72.1,47.7,29.82,North,0,1.1,4.5,42,0.00,,,0.00,WUHU21623XXSP,2013-05-07 22:06:00,
2013-05-07 18:11:00,71.8,47.4,29.83,North,7,1.4,2.2,42,0.00,,,0.00,WUHU21623XXSP,2013-05-07 22:11:00,
2013-05-07 18:16:00,71.4,47.1,29.82,NNW,337,1.6,2.2,42,0.00,,,0.00,WUHU21623XXSP,2013-05-07 22:16:00,
2013-05-07 18:21:00,70.9,46.6,29.83,North,0,1.6,2.0,42,0.00,,,0.00,WUHU21623XXSP,2013-05-07 22:21:00,
2013-05-07 18:26:00,70.3,46.1,29.83,North,5,1.4,3.6,42,0.00,,,0.00,WUHU21623XXSP,2013-05-07 22:26:00,
2013-05-07 18:31:00,70.0,46.4,29.83,NNW,337,1.6,3.6,43,0.00,,,0.00,WUHU21623XXSP,2013-05-07 22:31:00,
2013-05-07 18:36:00,69.6,46.0,29.83,NNW,342,0.9,2.0,43,0.00,,,0.00,WUHU21623XXSP,2013-05-07 22:36:00,
2013-05-07 18:41:00,69.4,45.9,29.83,NNE,22,0.7,2.5,43,0.00,,,0.00,WUHU21623XXSP,2013-05-07 22:41:00,
2013-05-07 18:46:00,69.1,46.1,29.83,NNW,331,1.7,2.5,44,0.00,,,0.00,WUHU21623XXSP,2013-05-07 22:46:00,
2013-05-07 18:51:00,68.9,45.4,29.83,North,0,0.9,2.5,43,0.00,,,0.00,WUHU21623XXSP,2013-05-07 22:51:00,
2013-05-07 18:56:00,68.7,45.8,29.83,North,0,1.2,1.8,44,0.00,,,0.00,WUHU21623XXSP,2013-05-07 22:56:00,
2013-05-07 19:01:00,68.7,45.8,29.83,North,0,0.9,1.8,44,0.00,,,0.00,WUHU21623XXSP,2013-05-07 23:01:00,
2013-05-07 19:06:00,68.7,45.8,29.82,NNW,337,0.0,0.9,44,0.00,,,0.00,WUHU21623XXSP,2013-05-07 23:06:00,
2013-05-07 19:11:00,68.7,45.8,29.82,North,0,1.0,1.1,44,0.00,,,0.00,WUHU21623XXSP,2013-05-07 23:11:00,
2013-05-07 19:16:00,68.5,45.7,29.82,North,0,0.0,1.1,44,0.00,,,0.00,WUHU21623XXSP,2013-05-07 23:16:00,
2013-05-07 19:21:00,68.5,45.7,29.83,North,0,0.0,0.0,44,0.00,,,0.00,WUHU21623XXSP,2013-05-07 23:21:00,
2013-05-07 19:26:00,68.9,46.0,29.83,NE,45,0.7,0.7,44,0.00,,,0.00,WUHU21623XXSP,2013-05-07 23:26:00,
2013-05-07 19:31:00,69.4,45.9,29.83,North,0,1.4,1.6,43,0.00,,,0.00,WUHU21623XXSP,2013-05-07 23:31:00,
2013-05-07 19:36:00,69.6,45.4,29.83,North,0,0.0,1.6,42,0.00,,,0.00,WUHU21623XXSP,2013-05-07 23:36:00,
2013-05-07 19:41:00,70.2,45.9,29.83,NNW,337,0.9,1.6,42,0.00,,,0.00,WUHU21623XXSP,2013-05-07 23:41:00,
2013-05-07 19:46:00,70.5,45.7,29.83,NNW,337,0.0,2.0,41,0.00,,,0.00,WUHU21623XXSP,2013-05-07 23:46:00,
2013-05-07 19:51:00,70.9,46.0,29.83,North,0,0.0,2.5,41,0.00,,,0.00,WUHU21623XXSP,2013-05-07 23:51:00,
2013-05-07 19:56:00,71.2,45.7,29.83,North,3,1.4,2.5,40,0.00,,,0.00,WUHU21623XXSP,2013-05-07 23:56:00,
2013-05-07 20:01:00,70.7,45.2,29.83,North,11,0.9,2.5,40,0.00,,,0.00,WUHU21623XXSP,2013-05-08 00:01:00,
2013-05-07 20:06:00,70.0,45.2,29.83,North,0,1.0,1.8,41,0.00,,,0.00,WUHU21623XXSP,2013-05-08 00:06:00,
2013-05-07 20:11:00,69.4,44.7,29.83,NNE,22,1.6,1.6,41,0.00,,,0.00,WUHU21623XXSP,2013-05-08 00:11:00,
2013-05-07 20:16:00,68.9,44.8,29.84,NNE,26,2.0,2.9,42,0.00,,,0.00,WUHU21623XXSP,2013-05-08 00:16:00,
2013-05-07 20:21:00,68.2,44.1,29.84,North,0,0.0,2.9,42,0.00,,,0.00,WUHU21623XXSP,2013-05-08 00:21:00,
2013-05-07 20:26:00,67.6,44.3,29.84,North,0,0.0,1.6,43,0.00,,,0.00,WUHU21623XXSP,2013-05-08 00:26:00,
2013-05-07 20:31:00,67.3,43.9,29.84,North,0,0.0,0.0,43,0.00,,,0.00,WUHU21623XXSP,2013-05-08 00:31:00,
2013-05-07 20:36:00,66.9,44.2,29.84,NNE,22,0.0,0.0,44,0.00,,,0.00,WUHU21623XXSP,2013-05-08 00:36:00,
2013-05-07 20:41:00,66.4,43.7,29.84,North,0,0.0,0.9,44,0.00,,,0.00,WUHU21623XXSP,2013-05-08 00:41:00,
2013-05-07 20:46:00,66.0,43.4,29.84,North,0,0.0,0.9,44,0.00,,,0.00,WUHU21623XXSP,2013-05-08 00:46:00,
2013-05-07 20:51:00,65.5,43.0,29.84,NNE,22,0.0,0.0,45,0.00,,,0.00,WUHU21623XXSP,2013-05-08 00:51:00,
2013-05-07 20:56:00,65.1,43.1,29.84,North,0,0.0,0.0,45,0.00,,,0.00,WUHU21623XXSP,2013-05-08 00:56:00,
2013-05-07 21:01:00,64.9,43.5,29.84,NE,45,0.0,0.0,46,0.00,,,0.00,WUHU21623XXSP,2013-05-08 01:01:00,
2013-05-07 21:06:00,64.6,43.2,29.84,NNE,22,0.0,0.0,46,0.00,,,0.00,WUHU21623XXSP,2013-05-08 01:06:00,
2013-05-07 21:11:00,64.2,43.4,29.84,North,0,0.0,0.0,47,0.00,,,0.00,WUHU21623XXSP,2013-05-08 01:11:00,
2013-05-07 21:16:00,63.9,43.1,29.84,North,0,0.0,0.0,47,0.00,,,0.00,WUHU21623XXSP,2013-05-08 01:16:00,
2013-05-07 21:21:00,63.5,43.4,29.84,North,0,0.0,0.0,48,0.00,,,0.00,WUHU21623XXSP,2013-05-08 01:21:00,
2013-05-07 21:26:00,63.3,43.2,29.84,North,0,0.0,0.0,48,0.00,,,0.00,WUHU21623XXSP,2013-05-08 01:26:00,
2013-05-07 21:31:00,63.1,43.0,29.85,North,0,0.0,0.0,48,0.00,,,0.00,WUHU21623XXSP,2013-05-08 01:31:00,
2013-05-07 21:36:00,62.8,43.3,29.85,North,0,0.0,0.0,49,0.00,,,0.00,WUHU21623XXSP,2013-05-08 01:36:00,
2013-05-07 21:41:00,62.6,43.7,29.85,North,0,0.0,0.0,50,0.00,,,0.00,WUHU21623XXSP,2013-05-08 01:41:00,
2013-05-07 21:46:00,62.4,43.5,29.85,North,0,0.0,0.0,50,0.00,,,0.00,WUHU21623XXSP,2013-05-08 01:46:00,
2013-05-07 21:51:00,62.2,43.4,29.85,North,0,0.0,0.0,50,0.00,,,0.00,WUHU21623XXSP,2013-05-08 01:51:00,
2013-05-07 21:56:00,62.1,43.7,29.85,North,0,0.0,0.0,51,0.00,,,0.00,WUHU21623XXSP,2013-05-08 01:56:00,
2013-05-07 22:01:00,61.9,43.5,29.85,North,0,0.0,0.0,51,0.00,,,0.00,WUHU21623XXSP,2013-05-08 02:01:00,
2013-05-07 22:06:00,61.5,43.2,29.85,NNE,22,0.0,0.0,51,0.00,,,0.00,WUHU21623XXSP,2013-05-08 02:06:00,
2013-05-07 22:11:00,61.5,44.2,29.85,NNE,22,0.0,0.0,53,0.00,,,0.00,WUHU21623XXSP,2013-05-08 02:11:00,
2013-05-07 22:16:00,61.2,44.3,29.85,NNE,22,0.0,0.0,54,0.00,,,0.00,WUHU21623XXSP,2013-05-08 02:16:00,
2013-05-07 22:21:00,61.0,44.2,29.85,NNE,22,0.0,0.0,54,0.00,,,0.00,WUHU21623XXSP,2013-05-08 02:21:00,
2013-05-07 22:26:00,60.6,43.8,29.85,NNE,22,0.0,0.0,54,0.00,,,0.00,WUHU21623XXSP,2013-05-08 02:26:00,
2013-05-07 22:31:00,60.4,44.2,29.85,NNE,22,0.0,0.0,55,0.00,,,0.00,WUHU21623XXSP,2013-05-08 02:31:00,
2013-05-07 22:36:00,60.4,45.1,29.86,NNE,22,0.0,0.0,57,0.00,,,0.00,WUHU21623XXSP,2013-05-08 02:36:00,
2013-05-07 22:41:00,60.1,44.8,29.86,NNE,22,0.0,0.0,57,0.00,,,0.00,WUHU21623XXSP,2013-05-08 02:41:00,
2013-05-07 22:46:00,59.9,45.1,29.86,NNE,22,0.0,0.0,58,0.00,,,0.00,WUHU21623XXSP,2013-05-08 02:46:00,
2013-05-07 22:51:00,59.7,45.4,29.86,NNE,22,0.0,0.0,59,0.00,,,0.00,WUHU21623XXSP,2013-05-08 02:51:00,
2013-05-07 22:56:00,59.5,46.1,29.86,NNE,22,0.0,0.0,61,0.00,,,0.00,WUHU21623XXSP,2013-05-08 02:56:00,
2013-05-07 23:01:00,59.2,45.3,29.86,NNE,22,0.0,0.0,60,0.00,,,0.00,WUHU21623XXSP,2013-05-08 03:01:00,
2013-05-07 23:06:00,58.8,46.2,29.86,NNE,22,0.0,0.0,63,0.00,,,0.00,WUHU21623XXSP,2013-05-08 03:06:00,
2013-05-07 23:11:00,58.8,45.8,29.86,NNE,22,0.0,0.0,62,0.00,,,0.00,WUHU21623XXSP,2013-05-08 03:11:00,
2013-05-07 23:16:00,58.8,46.2,29.86,NNE,22,0.0,0.0,63,0.00,,,0.00,WUHU21623XXSP,2013-05-08 03:16:00,
2013-05-07 23:21:00,58.6,46.0,29.86,NNE,22,0.0,0.0,63,0.00,,,0.00,WUHU21623XXSP,2013-05-08 03:21:00,
2013-05-07 23:26:00,58.5,46.3,29.86,NNE,22,0.0,0.0,64,0.00,,,0.00,WUHU21623XXSP,2013-05-08 03:26:00,
2013-05-07 23:31:00,58.1,46.3,29.85,NNE,22,0.0,0.0,65,0.00,,,0.00,WUHU21623XXSP,2013-05-08 03:31:00,
2013-05-07 23:36:00,57.9,46.2,29.86,NNE,22,0.0,0.0,65,0.00,,,0.00,WUHU21623XXSP,2013-05-08 03:36:00,
2013-05-07 23:41:00,57.7,46.4,29.86,NNE,22,0.0,0.0,66,0.00,,,0.00,WUHU21623XXSP,2013-05-08 03:41:00,
2013-05-07 23:46:00,57.6,46.2,29.86,North,0,0.0,0.0,66,0.00,,,0.00,WUHU21623XXSP,2013-05-08 03:46:00,
2013-05-07 23:51:00,57.6,45.8,29.86,North,0,0.0,0.0,65,0.00,,,0.00,WUHU21623XXSP,2013-05-08 03:51:00,
2013-05-07 23:56:00,57.4,46.1,29.86,North,0,0.0,0.0,66,0.00,,,0.00,WUHU21623XXSP,2013-05-08 03:56:00,